Wind_Speed
97 104 106 109 111 110 112 115 113 112 113 125 127 124 118 121 126 113 104 98 99 104 103 95 95 96 94 93 89 86 90 83 83 75 75 71 60 55 59 60 66 69 74 73
77 88 100 108 112 113 115 117 114 113 116 123 127 124 116 113 117 121 117 109 104 97 93 97 100 94 90 89 85 75 66 65 60 64 63 59 57 60 59 65 70 74 76 77
77 82 87 93 101 110 117 119 117 119 121 126 120 122 118 110 114 117 122 122 116 110 108 97 88 88 79 70 60 65 68 63 58 55 49 52 58 60 64 73 75 80 77 78
75 82 87 91 95 101 107 114 121 123 125 124 124 122 119 111 110 113 114 114 114 116 115 102 97 84 78 68 72 65 63 55 58 57 64 71 76 79 77 76 79 82 75 72
72 80 86 92 98 103 108 109 117 122 127 125 124 124 113 111 109 110 110 110 110 111 111 115 111 102 98 89 91 91 85 72 73 74 78 79 78 78 80 83 82 75 71 63
74 80 88 90 96 101 104 105 111 116 118 123 113 124 110 110 106 110 108 109 111 110 110 106 103 104 108 99 86 83 85 83 85 86 83 86 81 81 80 82 80 70 63 61
78 80 86 86 91 92 95 98 102 104 109 104 101 118 98 108 108 110 111 111 111 108 107 108 101 95 94 94 100 99 91 86 86 83 82 88 84 82 78 81 66 57 57 58
76 75 72 75 81 80 85 85 87 92 97 92 91 104 86 93 102 109 112 114 114 110 106 105 97 92 90 86 79 78 77 74 77 79 77 77 79 79 69 56 50 52 55 60
64 59 59 59 63 67 75 76 79 78 83 85 90 91 80 80 91 100 104 112 113 108 97 92 89 87 89 81 80 76 76 73 73 70 69 65 60 59 53 45 46 50 55 60
50 44 45 46 47 53 59 61 62 65 68 73 77 76 70 71 82 93 102 104 102 98 91 92 94 84 76 80 76 72 70 69 68 66 60 58 56 48 44 42 48 52 55 50
39 39 37 40 41 44 44 47 50 54 57 57 59 61 66 66 75 83 91 97 93 84 94 96 91 80 77 74 68 64 62 60 60 56 53 48 43 41 40 44 51 53 47 45
29 30 30 34 34 36 39 41 43 47 46 46 43 45 56 57 64 69 80 90 89 81 83 90 82 77 78 72 64 58 55 54 50 47 43 39 37 39 42 47 50 46 42 43
24 24 26 28 28 31 35 35 38 37 36 37 37 40 47 48 68 79 83 76 73 76 80 83 80 79 72 68 64 57 53 49 44 40 38 35 35 40 44 50 47 42 39 39
23 20 20 22 21 21 22 26 28 26 29 33 36 40 46 49 59 68 74 80 69 77 79 77 79 77 71 64 60 56 52 46 41 36 36 36 40 45 49 48 42 38 39 35
20 15 16 16 13 15 17 25 23 24 25 30 37 44 52 48 52 63 76 85 68 76 77 72 71 70 67 60 57 57 50 47 41 40 41 42 46 49 48 42 38 36 34 34
15 15 12 10 10 12 15 19 20 26 33 34 46 54 56 54 58 72 71 56 66 74 72 69 65 65 63 59 57 54 51 47 43 45 46 45 48 45 42 38 35 32 31 33
10 8 7 6 3 9 9 16 23 29 34 37 46 54 59 64 64 64 57 64 68 66 66 67 63 60 58 55 56 52 49 47 45 47 45 44 41 40 38 34 32 29 30 33
10 9 9 7 3 5 10 17 19 26 36 44 51 55 60 61 53 21 57 65 62 65 66 63 57 54 52 52 52 48 45 44 41 40 39 38 37 37 34 31 27 25 31 32
11 11 10 7 2 5 10 14 20 30 35 39 42 49 53 43 30 43 59 59 58 64 62 60 54 48 45 46 45 44 42 41 40 38 36 36 36 32 29 24 22 27 30 31
14 15 14 9 2 5 6 12 16 23 32 38 40 44 40 39 50 59 63 60 62 65 65 57 45 43 42 43 42 41 41 39 37 35 36 36 29 28 23 20 23 25 27 26
17 14 13 13 11 7 6 10 15 21 29 36 36 36 45 59 60 61 59 61 65 59 55 49 48 45 42 41 42 37 36 36 36 36 35 31 27 22 20 22 20 24 25 25
19 15 14 11 9 8 7 9 12 18 27 38 38 45 57 62 65 65 63 66 65 62 57 50 49 50 49 44 41 40 38 36 35 33 31 25 23 21 20 20 21 23 25 20
20 17 17 16 13 10 7 9 12 17 24 32 38 46 54 56 62 69 68 71 72 65 58 52 48 46 44 44 39 39 38 36 32 29 26 24 22 21 18 18 21 24 22 14
19 21 17 16 12 11 8 10 12 15 20 25 35 43 47 52 64 73 75 75 71 64 58 52 49 44 45 43 39 39 39 33 30 26 25 24 22 17 20 19 22 20 17 13
16 19 15 11 12 9 7 7 10 15 21 27 36 44 52 58 64 75 74 71 67 62 57 54 49 48 48 44 43 41 35 32 27 27 26 22 18 17 17 19 20 21 18 17
15 9 7 12 12 9 4 4 8 15 23 29 39 47 54 64 69 71 70 67 60 55 49 43 41 42 45 46 43 35 32 30 29 27 23 20 18 16 15 19 19 18 15 15
Wind_Direction
246 247 246 245 246 245 244 244 241 240 239 243 242 242 238 238 244 242 242 244 246 247 246 250 255 257 258 258 261 265 269 274 272 275 282 284 274 274 287 289 300 309 310 313
250 250 249 248 248 246 246 246 244 242 240 242 243 243 239 237 240 243 243 241 241 244 248 250 255 256 259 260 264 265 270 274 280 278 275 273 273 279 284 290 304 310 309 311
253 254 253 252 251 250 249 247 245 245 243 244 243 244 244 239 240 240 242 244 243 247 249 247 244 249 252 253 254 262 264 269 272 265 270 270 273 278 287 298 307 307 305 308
259 258 257 256 255 253 249 250 249 246 245 245 245 243 243 241 240 241 242 244 246 246 245 247 246 242 243 241 248 254 255 258 258 261 270 278 282 285 290 299 301 302 302 305
262 260 259 257 255 253 251 250 249 248 249 246 245 247 243 243 241 242 243 245 245 245 245 245 243 246 248 251 249 255 260 259 263 263 273 278 281 285 290 291 295 298 303 299
263 263 261 260 258 255 255 254 253 252 250 248 248 248 244 244 242 242 242 242 244 244 247 244 245 246 247 248 250 253 257 261 265 268 271 274 279 281 283 287 292 296 296 298
268 265 264 264 261 261 258 256 254 254 254 253 248 249 243 243 241 241 239 240 240 240 243 245 245 245 249 252 251 254 259 260 261 264 269 271 273 276 280 287 290 293 295 301
275 273 268 264 262 258 258 256 254 252 252 252 248 248 242 237 238 239 238 237 239 239 240 244 246 247 248 249 252 254 254 253 257 263 265 269 272 277 281 287 289 293 297 303
280 275 268 262 260 257 255 254 253 252 251 249 248 249 244 236 237 236 238 237 235 238 239 244 244 245 247 249 250 252 255 255 258 261 267 271 273 279 282 286 290 294 298 302
288 279 270 267 261 257 253 255 252 251 248 246 245 246 244 236 232 232 234 237 236 235 237 238 239 240 244 246 248 250 253 256 259 263 264 268 274 275 280 288 290 292 296 296
291 283 279 267 260 257 254 249 247 246 244 243 239 239 239 234 229 229 233 235 234 229 231 234 237 237 237 241 245 246 249 252 256 258 264 266 268 273 282 287 290 291 294 294
291 282 275 267 266 257 251 249 244 243 240 237 233 232 231 226 224 232 235 231 227 224 227 231 233 236 236 238 240 243 246 250 253 256 259 261 266 273 279 288 289 290 290 295
296 288 279 272 265 257 253 251 246 241 238 233 223 221 225 217 220 218 224 232 224 219 224 226 225 230 232 234 236 240 243 245 249 253 254 262 270 274 280 285 286 286 292 292
305 288 275 273 266 258 249 243 237 237 233 220 212 209 215 213 221 225 220 223 213 216 218 221 222 226 229 231 232 234 238 241 245 250 255 263 267 271 279 282 282 285 289 290
317 302 289 279 264 254 235 233 217 206 213 207 211 205 203 201 215 217 222 218 203 210 214 217 219 222 227 227 231 232 233 237 238 246 253 260 266 269 275 277 278 286 284 294
332 323 311 305 290 249 232 218 219 203 197 194 199 191 195 208 216 214 214 208 212 206 204 212 214 217 222 225 226 228 230 234 237 244 249 255 262 267 270 272 278 282 288 300
346 0 346 329 304 263 237 224 214 203 199 198 203 206 208 214 221 219 200 198 206 205 199 206 208 212 217 219 220 225 227 232 235 241 247 253 258 261 265 270 279 279 299 300
351 18 33 34 346 254 228 216 208 209 208 196 198 207 212 218 224 217 193 199 197 197 197 201 202 208 211 214 219 222 226 231 236 241 245 249 252 257 262 271 275 291 299 297
11 25 29 28 6 266 237 220 201 189 216 206 204 203 209 210 184 178 190 193 191 193 194 197 197 201 205 212 216 218 221 227 232 237 241 242 248 253 262 270 284 294 294 295
19 13 5 6 346 295 255 232 219 193 204 218 204 208 190 177 177 180 187 182 184 191 191 190 190 195 198 206 211 217 220 224 229 232 234 240 246 254 262 272 290 292 292 288
345 356 5 5 359 326 292 244 225 213 196 213 209 194 179 177 181 178 180 178 180 184 185 182 187 185 190 207 212 213 217 220 223 226 231 238 241 247 256 278 284 289 287 290
348 344 341 344 348 326 289 267 230 220 207 203 206 187 183 184 179 172 172 175 175 177 177 181 186 182 188 198 209 210 213 215 219 224 230 233 236 244 263 277 274 289 289 284
348 339 341 345 331 327 294 267 234 218 212 204 200 190 192 189 177 168 169 173 176 175 174 180 182 183 188 199 207 207 207 212 216 223 225 225 230 250 269 272 285 293 290 285
344 334 333 343 339 314 287 258 234 212 209 195 193 192 187 181 177 165 171 175 172 172 175 178 179 180 188 195 203 205 206 211 214 216 218 219 238 256 266 268 288 286 287 291
335 331 332 344 5 333 287 258 229 208 194 188 186 179 177 174 175 168 172 173 171 172 176 178 179 181 188 193 201 203 205 209 205 207 214 225 239 257 269 279 286 290 283 278
340 3 344 14 11 9 320 250 207 199 185 184 177 175 174 173 171 170 170 169 170 172 174 180 182 187 191 192 198 198 205 200 196 204 214 232 243 245 273 287 291 293 285 283
Height
10592 10594 10595 10597 10602 10615 10616 10619 10639 10656 10656 10625 10629 10659 10701 10705 10689 10708 10720 10727 10737 10743 10756 10762 10768 10777 10786 10798 10803 10799 10802 10805 10811 10812 10811 10810 10808 10808 10807 10802 10801 10796 10789 10783
10571 10571 10571 10574 10578 10587 10590 10593 10611 10622 10623 10597 10611 10632 10668 10680 10684 10691 10696 10708 10718 10727 10735 10748 10756 10765 10775 10784 10791 10787 10792 10795 10800 10800 10799 10798 10797 10799 10798 10794 10790 10785 10780 10773
10552 10549 10548 10549 10553 10558 10564 10564 10579 10585 10582 10572 10601 10612 10635 10663 10661 10670 10674 10687 10702 10712 10719 10732 10744 10750 10763 10774 10778 10776 10779 10784 10788 10789 10789 10786 10786 10788 10789 10784 10780 10776 10772 10765
10533 10526 10525 10525 10528 10526 10532 10534 10540 10548 10550 10560 10569 10586 10603 10636 10646 10649 10661 10671 10681 10692 10699 10713 10727 10739 10747 10760 10770 10768 10769 10775 10777 10779 10779 10776 10775 10775 10778 10775 10773 10769 10764 10757
10509 10502 10501 10499 10498 10494 10496 10504 10503 10512 10516 10533 10544 10553 10600 10613 10628 10636 10647 10653 10661 10667 10676 10691 10707 10716 10731 10747 10752 10757 10762 10767 10764 10767 10766 10765 10768 10765 10768 10767 10766 10762 10755 10750
10485 10478 10469 10473 10465 10465 10470 10479 10476 10476 10484 10486 10541 10522 10574 10585 10605 10610 10621 10626 10634 10645 10652 10668 10686 10702 10713 10725 10738 10745 10751 10755 10751 10753 10755 10755 10759 10760 10762 10760 10757 10752 10747 10740
10455 10454 10442 10444 10436 10439 10438 10445 10447 10452 10452 10477 10505 10477 10544 10554 10573 10580 10585 10596 10606 10621 10631 10645 10669 10688 10698 10709 10721 10729 10737 10743 10740 10742 10746 10744 10751 10752 10754 10750 10749 10742 10738 10731
10428 10423 10420 10413 10405 10412 10410 10413 10420 10424 10429 10448 10461 10451 10513 10532 10537 10541 10556 10570 10578 10599 10620 10630 10657 10672 10683 10694 10706 10712 10718 10729 10729 10733 10736 10736 10740 10743 10743 10740 10739 10733 10727 10720
10402 10398 10389 10389 10385 10386 10382 10389 10393 10402 10409 10420 10428 10441 10474 10498 10516 10524 10534 10536 10556 10580 10612 10631 10639 10655 10667 10682 10687 10697 10702 10715 10718 10723 10726 10727 10730 10731 10730 10729 10728 10725 10716 10710
10377 10376 10372 10370 10369 10365 10366 10370 10378 10382 10390 10397 10413 10428 10456 10474 10485 10495 10503 10519 10542 10574 10599 10604 10613 10638 10658 10659 10672 10685 10691 10699 10705 10711 10714 10717 10720 10721 10719 10719 10717 10714 10711 10703
10362 10356 10356 10352 10351 10350 10355 10356 10360 10365 10372 10383 10396 10416 10429 10451 10461 10474 10485 10504 10527 10559 10570 10581 10603 10633 10636 10644 10661 10671 10680 10687 10694 10699 10703 10707 10709 10710 10709 10709 10706 10703 10700 10695
10348 10344 10341 10339 10342 10342 10341 10346 10349 10351 10363 10375 10391 10400 10408 10436 10454 10471 10479 10482 10509 10539 10556 10568 10600 10612 10620 10635 10650 10659 10670 10678 10682 10687 10693 10697 10700 10701 10700 10699 10696 10694 10691 10686
10339 10335 10331 10330 10331 10332 10334 10339 10339 10348 10357 10370 10385 10394 10402 10418 10417 10424 10434 10477 10503 10525 10540 10553 10585 10592 10609 10624 10638 10651 10660 10666 10672 10679 10684 10688 10691 10692 10691 10689 10688 10685 10682 10678
10333 10329 10325 10323 10324 10325 10328 10329 10333 10344 10354 10363 10372 10385 10394 10403 10413 10427 10446 10446 10481 10503 10521 10543 10560 10581 10597 10615 10628 10640 10649 10656 10664 10670 10675 10679 10682 10683 10682 10680 10679 10676 10673 10670
10328 10324 10320 10318 10318 10319 10322 10320 10327 10333 10345 10360 10362 10373 10387 10386 10394 10409 10425 10431 10467 10487 10507 10534 10553 10573 10590 10608 10619 10628 10639 10646 10654 10661 10666 10671 10673 10673 10673 10672 10671 10669 10666 10662
10326 10322 10317 10314 10315 10315 10316 10317 10325 10328 10335 10351 10359 10366 10369 10374 10379 10392 10413 10452 10470 10477 10504 10524 10546 10565 10581 10598 10610 10618 10627 10637 10644 10651 10657 10661 10663 10664 10664 10664 10664 10661 10659 10655
10326 10322 10318 10315 10314 10312 10314 10317 10319 10322 10330 10342 10345 10355 10371 10375 10377 10391 10422 10436 10454 10481 10502 10516 10538 10556 10571 10590 10598 10608 10619 10627 10635 10643 10649 10652 10654 10655 10656 10657 10656 10654 10651 10648
10325 10320 10317 10315 10313 10312 10311 10314 10321 10323 10322 10333 10342 10349 10355 10361 10378 10407 10419 10435 10456 10476 10494 10513 10534 10549 10565 10579 10590 10601 10611 10619 10628 10634 10639 10643 10646 10648 10649 10649 10649 10647 10644 10641
10324 10320 10317 10315 10312 10310 10310 10310 10314 10321 10315 10322 10333 10342 10352 10366 10387 10395 10410 10435 10458 10474 10493 10509 10528 10546 10562 10573 10585 10594 10603 10612 10619 10625 10630 10635 10638 10641 10642 10642 10642 10640 10639 10636
10325 10322 10318 10315 10312 10309 10309 10309 10311 10318 10319 10317 10328 10340 10355 10369 10377 10392 10408 10428 10450 10472 10484 10507 10529 10543 10555 10566 10577 10587 10596 10605 10611 10617 10623 10628 10632 10633 10635 10635 10635 10635 10633 10631
10328 10324 10319 10315 10311 10308 10307 10308 10310 10313 10320 10318 10328 10342 10355 10358 10371 10391 10410 10432 10448 10476 10495 10511 10522 10538 10552 10560 10571 10581 10590 10598 10604 10611 10616 10621 10626 10628 10629 10630 10630 10630 10628 10625
10330 10325 10320 10316 10312 10309 10306 10306 10308 10310 10314 10319 10325 10337 10347 10357 10374 10393 10411 10433 10451 10470 10486 10506 10519 10530 10543 10554 10565 10575 10584 10591 10598 10605 10610 10615 10619 10621 10623 10624 10626 10625 10622 10619
10330 10326 10322 10318 10313 10310 10307 10305 10307 10309 10312 10319 10327 10338 10348 10360 10378 10392 10414 10430 10440 10464 10483 10499 10515 10530 10543 10551 10559 10570 10579 10587 10594 10600 10604 10610 10613 10615 10617 10620 10620 10618 10615 10612
10330 10326 10322 10317 10313 10310 10308 10305 10306 10309 10313 10321 10329 10338 10350 10366 10378 10391 10411 10426 10445 10464 10479 10495 10511 10529 10540 10547 10557 10565 10575 10583 10590 10595 10601 10605 10609 10611 10614 10615 10614 10611 10608 10606
10330 10325 10319 10315 10312 10310 10308 10308 10309 10311 10316 10323 10331 10343 10357 10371 10383 10396 10415 10434 10450 10464 10478 10492 10509 10524 10535 10544 10552 10562 10571 10579 10586 10592 10597 10601 10605 10607 10609 10610 10608 10605 10603 10602
10329 10325 10320 10314 10313 10312 10309 10309 10310 10314 10320 10327 10336 10348 10362 10374 10388 10404 10422 10442 10457 10471 10488 10504 10517 10527 10536 10543 10552 10562 10570 10576 10583 10589 10594 10599 10602 10603 10605 10605 10603 10600 10598 10597